Regional Weather Roundup
Issued by NWS San Diego, CA

Home | Current Version | Previous Version | Text Only | Print | Product List | Glossary On
Versions: 1 2 3 4 5 6 7 8 9 10 11 12 13 14 15 16 17 18 19 20 21 22 23 24 25 26 27 28 29 30 31 32 33 34 35 36 37 38 39 40 41 42 43 44 45 46 47 48 49 50
446
ASUS46 KSGX 041211
RWRSGX

SAN DIEGO HOURLY WEATHER ROUNDUP
NATIONAL WEATHER SERVICE SAN DIEGO CA
400 AM PST SUN DEC 04 2016

NOTE: "FAIR" INDICATES FEW OR NO CLOUDS BELOW 12,000 FEET WITH NO
SIGNIFICANT WEATHER AND/OR OBSTRUCTIONS TO VISIBILITY.

CAZ042-043-060-061-PZZ750-775-041300-

GREATER SAN DIEGO AREA

CITY           SKY/WX    TMP DP  RH WIND       PRES   REMARKS
SAN DIEGO AP   CLEAR     48  31  51 N3        30.08S
NATIONAL CITY    N/A     44  34  68 CALM      30.07S
CHULA VISTA      N/A     43  34  71 E2        29.99S
IMPERIAL BEACH CLEAR     49  34  56 E10       30.06F
MIRAMAR MCAS   CLEAR     46  33  60 E8        30.05F
MONTGOMERY FLD CLEAR     43  31  62 CALM      30.06F

$$

NORTH SAN DIEGO COUNTY

CITY           SKY/WX    TMP DP  RH WIND       PRES   REMARKS
CAMP PENDLETON CLEAR     35  29  78 CALM      30.06F
OCEANSIDE AP   CLEAR     37  30  75 E3        30.05F
OCEANSIDE HBR    N/A     45  30  55 NE3       30.07F
VISTA            N/A     42  31  64 CALM      30.04F
CARLSBAD       CLEAR     47  29  49 CALM      30.04F
DEL MAR          N/A     51  32  48 CALM      30.08F
LA JOLLA SCRIP   N/A     53  32  44 NE9       30.05F
FALLBROOK        N/A     51  26  38 CALM      30.05S
ESCONDIDO        N/A     41  30  64 CALM      30.09S
SAN MARCOS       N/A     49  28  43 CALM      30.08F
POWAY            N/A     37  31  78 CALM      30.10S

$$

EAST SAN DIEGO COUNTY

CITY           SKY/WX    TMP DP  RH WIND       PRES   REMARKS
RAMONA         CLEAR     32  27  81 CALM      30.06F
SANTEE LAKES     N/A     39  33  79 CALM      30.08S
LA MESA          N/A     49  30  49 CALM      30.01F
JAMUL            N/A     41  28  59 CALM      30.08F
DESCANSO N       N/A     53  15  22 CALM      30.01F
CAMPO            N/A     46  17  31 E10       30.04F

$$

ORANGE COUNTY AND THE LOS ANGELES BASIN

CITY           SKY/WX    TMP DP  RH WIND       PRES   REMARKS
JOHN WAYNE AP  CLEAR     46  31  55 CALM      30.05F
LAGUNA BEACH     N/A     42  33  71 CALM      30.00F
LAKE FOREST FR   N/A     51  16  25 CALM      29.95R
HUNTINGTON BCH   N/A     40  37  87 CALM      30.07S
LOS ALAMITOS   FAIR      42  33  70 CALM      30.05S
FULLERTON      CLEAR     44  28  53 CALM      30.04F
LONG BEACH     CLEAR     46  33  60 CALM      30.05F
L.A. AP        CLEAR     48  30  49 E6        30.05F
L.A. DOWNTOWN  CLEAR     46  33  60 CALM      30.05S

$$

THE INLAND EMPIRE

CITY           SKY/WX    TMP DP  RH WIND       PRES   REMARKS
CORONA         CLEAR     36  28  73 NW3       30.07S
CHINO          CLEAR     40  30  67 NE5       30.07F
ONTARIO        PTCLDY    46  24  42 N6        30.06S
SAN BERNARDINO FAIR      45  25  44 E6        30.07S
RIVERSIDE AP   CLEAR     51  24  34 NE9       30.06S
MORENO VALLEY    N/A     52  29  40 CALM      28.20S
MARCH ARB      CLEAR     34  27  75 W3        30.06F
HORSETHIEF CYN   N/A     47  16  28 W2        30.10F
PERRIS           N/A     44  29  56 CALM      30.12F
HEMET EAST       N/A     51  14  22 CALM      30.14F
FRENCH VALLEY  NOT AVBL
TEMECULA         N/A     39  31  75 CALM      30.14F

$$

SAN BERNARDINO AND RIVERSIDE COUNTY MOUNTAINS

CITY           SKY/WX    TMP DP  RH WIND       PRES   REMARKS
BIG BEAR AP    CLEAR     27  10  50 CALM      30.24S
ANGELUS OAKS     N/A     42  19  38 CALM      30.09F
PINE COVE        N/A     47  11  23 CALM      30.12F

$$

SOUTHERN DESERT INCLUDING THE COACHELLA VALLEY

CITY           SKY/WX    TMP DP  RH WIND       PRES   REMARKS
PALM SPRINGS   CLEAR     51  22  31 N7        30.07F
PALM DESERT      N/A     47  29  50 CALM        N/A
THERMAL        CLEAR     42  23  46 CALM      30.05S
BLYTHE         CLEAR     50  12  21 NW3       30.09F
IMPERIAL AP    CLEAR     45  18  34 SW5       30.05F
EL CENTRO NAS  CLEAR     45   9  23 W12       30.07F
YUMA AZ        CLEAR     56  11  16 N13       30.04S

$$

UPPER DESERT

CITY           SKY/WX    TMP DP  RH WIND       PRES   REMARKS
VICTORVILLE AP   N/A     34   3  27 CALM      30.17F
HESPERIA         N/A     37  10  33 W3        30.35F
PALMDALE       PTCLDY    33  14  45 SW5       30.18F WCI  29
LANCASTER      PTCLDY    29  10  45 CALM      30.19F
EDWARDS AFB    CLEAR     26  10  50 CALM      30.17S
DAGGETT        CLEAR     39   7  26 W14       30.17S WCI  31
29 PALMS N     CLEAR     46  12  25 NW8       30.20F
NEEDLES        CLEAR     54  14  20 N10       30.11F

$$

REGIONAL REPORTS

CITY           SKY/WX    TMP DP  RH WIND       PRES   REMARKS
SANTA BARBARA  CLEAR     41  36  82 CALM      30.04F
SANDBERG       CLEAR     47  10  22 NE14      30.18S
LAS VEGAS NV   CLEAR     39  12  33 CALM      30.17F
PHOENIX AZ     CLEAR     46  29  51 CALM      30.03S
TIJUANA        CLEAR     46  32  57 CALM      30.08F
ENSENADA NW      N/A     53  32  45 NE3       30.01F

$$

OFFSHORE ISLANDS

CITY           SKY/WX    TMP DP  RH WIND       PRES   REMARKS
CATALINA ARPT  CLEAR     60  17  18 NE7       30.07F
SAN NICOLAS IS CLEAR     53  51  93 NW13      30.05S

$$

MARINE AND OFFSHORE BUOY REPORTS

STATION/POSITION SKY/WX   TEMP    WIND        PRES    SWELL
                          AIR SEA DIR/SP/G            HT/PER/DIR
                          (F)     (DEG/KT/KT) (MB)    (FT/S/D)
TANNER BANKS               60 62  310/ 14/ 16 1017.6R   8/310/19
S CLEMENTE BASIN           60 60  320/  4/  6 1017.5F   5/290/19
SAN NICOLAS IS.               59                N/A     7/300/18
SO. S. ROSA ISLA           58 59  320/ 14/ 16 1017.5F  10/310/17
W. S. BARBARA CH           58 58  320/ 16/ 17 1017.3F   8/310/17
M. S. BARBARA CH                  220/  6/  8 1017.8F
S. MONICA BASIN            60 60   60/  4/  6 1016.9F   3/200/14
S PEDRO CHANNEL               61                N/A     2/270/18
CMP PENDLETON NS              60                N/A     2/240/20
OCEANSIDE OFFSHR              61                N/A     2/180/15
TORREY PINES OTR              62                N/A     2/270/18
POINT LOMA SOUTH              61                N/A     3/280/18

$$





USA.gov is the U.S. government's official web portal to all federal, state and local government web resources and services.